User: anonymous   Login
Location: Ostrava
(49.8330°N, 18.2830°E)
Time: 09:59:18
(UTC+02:00)
Language:

Cosmos 2219 Rocket - Orbit

View from above orbital plane
View from above orbital plane
View from above satellite
View from above satellite

Ground track
Ground track

The orbit data is extracted from the following two-line orbital elements,

1 22220U 92076B   16148.23635086 -.00000272  00000-0 -11292-3 0  9996
2 22220  70.9980 151.6414 0011564 150.2557 285.5550 14.16397424216120
Epoch (UTC): 27 May 2016 05:40:20
Eccentricity: 0.0011564
inclination: 70.9980°
perigee height: 829 km
apogee height: 846 km
right ascension of ascending node: 151.6414°
argument of perigee: 150.2557°
revolutions per day: 14.16397424
mean anomaly at epoch: 285.5550°
orbit number at epoch: 21612

The dashed part of the orbit path shows where the satellite is in the earth's shadow,  

DLR